Location: Ariel
(45.9570°N, 122.5700°W)
Time: 18:37:25
(UTC-07:00)

ISS - Visible Passes

Search period start: 25 June 2019 00:00
Search period end: 05 July 2019 00:00
Orbit: 407 x 419 km, 51.6° (Epoch: 26 June)

Date Brightness Start Highest point End Pass type
(mag) Time Alt. Az. Time Alt. Az. Time Alt. Az.
29 Jun -1.3 04:33:59 10° SSE 04:35:38 13° SE 04:37:17 10° ESE visible
01 Jul -2.5 04:29:56 10° SSW 04:32:52 30° SE 04:35:50 10° ENE visible
02 Jul -1.8 03:42:08 15° SSE 03:43:28 19° SE 03:45:52 10° E visible
03 Jul -1.2 02:54:22 11° SE 02:54:22 11° SE 02:55:12 10° ESE visible
03 Jul -3.7 04:27:11 12° SW 04:30:14 71° SSE 04:33:32 10° ENE visible
04 Jul -3.2 03:39:21 27° SSW 03:40:42 43° SE 03:43:52 10° ENE visible
